Regional Weather Roundup
Issued by NWS

Home | Current Version | Previous Version | Text Only | Print | Product List | Glossary Off
Versions: 1 2 3 4 5 6 7 8 9 10 11 12 13 14 15 16 17 18 19 20 21 22 23 24 25 26 27 28 29 30 31 32 33 34 35 36 37 38 39 40 41 42 43 44 45 46 47 48 49 50

000
ASUS43 KFSD 040810
RWRSD

WEATHER ROUNDUP FOR SOUTH DAKOTA
NATIONAL WEATHER SERVICE SIOUX FALLS SD
200 AM CST WED MAR 04 2015

NOTE: "FAIR" INDICATES FEW OR NO CLOUDS BELOW 12,000 FEET WITH NO
SIGNIFICANT WEATHER AND/OR OBSTRUCTIONS TO VISIBILITY.


SDZ001>005-009-010-012>017-040900-
NORTHWEST AND NORTH CENTRAL SOUTH DAKOTA

CITY           SKY/WX    TMP DP  RH WIND       PRES   REMARKS
BUFFALO          N/A      2  -5  72 NW14      29.96R WCI -16
FAITH            N/A      3  -6  66 W10       30.05R WCI -12
MOBRIDGE       CLOUDY     3  -3  76 CALM      30.04S
$$

SDZ012>016-024>037-041>051-057-063-072>074-040900-
SOUTHWEST AND SOUTH CENTRAL SOUTH DAKOTA

CITY           SKY/WX    TMP DP  RH WIND       PRES   REMARKS
RAPID CTY ARPT PTCLDY     2  -8  63 W5        30.07S WCI  -8
PIERRE         CLEAR      3  -4  72 SW12      30.12S WCI -13
CUSTER         PTCLDY    -5  -9  83 SW5       29.89R WCI -16
ELLSWORTH AFB  CLEAR      4  -6  62 W5        30.05S WCI  -5
PHILIP         CLEAR      2  -6  69 NW5       30.13R WCI  -8
PINE RIDGE     PTCLDY     0  -3  87 W6        30.10R WCI -12
SPEARFISH      FAIR       7  -4  61 W13       30.01S WCI  -9
WINNER         FAIR       4  -6  63 W10       30.14R WCI -11
$$

SDZ004>011-016>023-039-040-040900-
NORTHEAST SOUTH DAKOTA

CITY           SKY/WX    TMP DP  RH WIND       PRES   REMARKS
ABERDEEN       CLEAR     -8 -13  78 SW7       30.13R WCI -23
WATERTOWN      CLEAR     -2  -9  72 W8        30.08R WCI -17
SISSETON         N/A      0  -9  65 NW10      30.10  WCI -16
$$

SDZ017-020-022-023-036>040-048>070-040900-
SOUTHEAST SOUTH DAKOTA

CITY           SKY/WX    TMP DP  RH WIND       PRES   REMARKS
SIOUX FALLS    PTCLDY     2  -3  80 SW3       30.15R
HURON          CLEAR     -3  -7  82 SW3       30.16R
CHAMBERLAIN    PTCLDY     2  -5  70 NW13      30.15R WCI -15
MITCHELL       CLEAR      3  -1  83 W6        30.18R WCI  -8
YANKTON        PTCLDY    10   1  67 NW6       30.20R WCI   1
$$

ABBREVIATIONS USED IN REMARKS
   TC - TEMPERATURE IN CELSIUS
  WCI - WIND CHILL INDEX
   HX - HEAT INDEX
  VSB - VISIBILITY



USA.gov is the U.S. government's official web portal to all federal, state and local government web resources and services.